DW4326 Weather Reports


time (UTC)temp
F
wind
direction
speed
knots
gust
knots
rain 1hr
in
rain 24hr
in
rain mn
in
humidity
%
barometer
mb
20260509130515 45 128 0.9 3.5 0.00 0.00 0.00 73 1011.9
20260509125016 42 119 0.0 0.0 0.00 0.00 0.00 85 1012.0
20260509123512 39 97 0.0 0.0 0.00 0.00 0.00 90 1012.2
20260509122009 35 96 0.0 0.0 0.00 0.00 0.00 94 1012.4
20260509120502 33 96 0.0 0.0 0.00 0.00 0.00 97 1012.7
20260509115001 32 96 0.0 0.0 0.00 0.00 0.00 98 1012.7
20260509113454 30 96 0.0 0.0 0.00 0.00 0.00 97 1012.8
20260509111955 29 96 0.0 0.0 0.00 0.00 0.00 96 1012.9
20260509110453 28 96 0.0 0.0 0.00 0.00 0.00 95 1012.9
20260509104952 28 96 0.0 0.0 0.00 0.00 0.00 95 1013.0
20260509103453 28 95 0.0 0.0 0.00 0.00 0.00 95 1012.9
20260509101950 28 95 0.0 0.0 0.00 0.00 0.00 95 1012.8
20260509101223 28 95 0.0 0.0 0.00 0.00 0.00 94 1012.6
20260509100446 28 95 0.0 0.0 0.00 0.00 0.00 94 1012.4
20260509093445 28 95 0.0 0.0 0.00 0.00 0.00 94 1012.4
20260509091940 28 95 0.0 0.0 0.00 0.00 0.00 93 1012.3
20260509090438 28 95 0.0 0.0 0.00 0.00 0.00 94 1012.2
20260509084932 28 95 0.0 0.0 0.00 0.00 0.00 94 1012.0
20260509083434 28 95 0.0 0.0 0.00 0.00 0.00 93 1012.0
20260509081929 29 95 0.0 0.0 0.00 0.00 0.00 93 1011.6
20260509080430 29 95 0.0 0.0 0.00 0.00 0.00 93 1011.8
20260509074930 29 95 0.0 0.0 0.00 0.00 0.00 93 1011.9
20260509073430 29 95 0.0 0.0 0.00 0.00 0.00 92 1011.9
20260509071930 29 95 0.0 0.0 0.00 0.00 0.00 92 1012.0
20260509070430 30 95 0.0 0.0 0.00 0.00 0.00 92 1012.1
20260509064931 30 95 0.0 0.0 0.00 0.00 0.00 91 1012.1
20260509064157 30 95 0.0 0.0 0.00 0.00 0.00 91 1012.1
20260509061924 31 95 0.0 0.0 0.00 0.00 0.00 91 1012.1
20260509060422 31 95 0.0 0.0 0.00 0.00 0.00 90 1012.1
20260509054923 31 95 0.0 0.0 0.00 0.00 0.00 90 1012.2
20260509053422 32 95 0.0 0.0 0.00 0.00 0.00 89 1012.2
20260509051918 32 95 0.0 0.0 0.00 0.00 0.00 89 1012.0
20260509050418 33 95 0.0 0.0 0.00 0.00 0.00 88 1011.8
20260509045646 33 95 0.0 0.0 0.00 0.00 0.00 88 1011.9
20260509043413 34 95 0.0 0.0 0.00 0.00 0.00 87 1011.7
20260509041914 34 95 0.0 0.0 0.00 0.00 0.00 86 1011.9
20260509040413 35 95 0.0 0.0 0.00 0.00 0.00 85 1011.8
20260509034913 35 95 0.0 0.0 0.00 0.00 0.00 84 1011.7
20260509034145 36 95 0.0 0.0 0.00 0.00 0.00 83 1011.7
20260509031912 37 95 0.0 0.0 0.00 0.00 0.00 82 1011.5
20260509030409 38 128 0.0 0.0 0.00 0.00 0.00 81 1011.5
20260509024909 39 128 0.0 0.0 0.00 0.00 0.00 80 1011.4
20260509023409 40 128 0.0 0.0 0.00 0.00 0.00 79 1011.1
20260509021906 41 128 0.0 0.0 0.00 0.00 0.00 77 1011.0
20260509020406 42 128 0.0 0.0 0.00 0.00 0.00 77 1010.7
20260509014906 42 128 0.0 0.0 0.00 0.00 0.00 75 1010.7
20260509014139 44 128 0.0 0.9 0.00 0.00 0.00 73 1010.5
20260509011907 44 120 0.0 0.0 0.00 0.00 0.00 72 1010.3
20260509010406 45 120 0.0 0.0 0.00 0.00 0.00 67 1010.0
20260509004911 47 120 0.0 0.0 0.00 0.00 0.00 66 1009.2
20260509004906 46 120 0.0 0.0 0.00 0.00 0.00 65 1009.6
20260509001904 47 120 0.0 2.6 0.00 0.00 0.00 61 1009.1
20260509000358 48 307 0.0 2.6 0.00 0.00 0.00 58 1008.8
20260508234856 49 32 0.0 0.0 0.00 0.00 0.00 54 1008.8
20260508233356 50 13 0.0 3.5 0.00 0.00 0.00 53 1008.5
20260508233350 49 13 0.0 0.0 0.00 0.00 0.00 55 1008.7
20260508231114 51 13 0.0 3.5 0.00 0.00 0.00 44 1008.4
20260508224841 51 11 0.9 4.3 0.00 0.00 0.00 42 1008.3
20260508223334 52 12 0.0 2.6 0.00 0.00 0.00 42 1008.3
20260508221835 52 83 0.0 3.5 0.00 0.00 0.00 40 1008.2
20260508220329 52 28 2.6 8.7 0.00 0.00 0.00 36 1008.2
20260508214828 53 355 2.6 8.7 0.00 0.00 0.00 36 1008.0
20260508214054 53 299 0.9 8.7 0.00 0.00 0.00 37 1008.0
20260508211824 53 5 1.7 6.1 0.00 0.00 0.00 37 1008.0
20260508211047 53 276 0.9 8.7 0.00 0.00 0.00 36 1007.8
20260508204817 54 37 1.7 8.7 0.00 0.00 0.00 36 1007.8
20260508203311 54 121 2.6 6.1 0.00 0.00 0.00 38 1007.6
20260508201811 53 296 0.0 3.5 0.00 0.00 0.00 39 1007.5
20260508201036 52 292 1.7 7.0 0.00 0.00 0.00 40 1007.6
20260508194806 52 11 1.7 7.0 0.00 0.00 0.00 40 1007.7
20260508193259 51 42 2.6 8.7 0.00 0.00 0.00 41 1007.8
20260508192529 52 288 2.6 10.4 0.00 0.00 0.00 40 1007.7
20260508190253 52 205 1.7 9.6 0.00 0.00 0.00 41 1007.6
20260508184753 53 296 3.5 10.4 0.00 0.00 0.00 37 1007.6
20260508183249 54 5 3.5 13.9 0.00 0.00 0.00 40 1007.7
20260508181747 53 342 2.6 8.7 0.00 0.00 0.00 45 1007.8
20260508181019 51 332 3.5 9.6 0.00 0.00 0.00 43 1008.0
20260508174747 51 340 0.0 4.3 0.00 0.00 0.00 43 1007.9
20260508173249 51 337 3.5 8.7 0.00 0.00 0.00 45 1007.9
20260508172514 51 355 2.6 8.7 0.00 0.00 0.00 43 1008.0
20260508170244 51 315 0.9 7.8 0.00 0.00 0.00 44 1008.0
20260508164745 50 11 2.6 9.6 0.00 0.00 0.00 44 1008.1
20260508164014 49 178 0.9 7.0 0.00 0.00 0.00 47 1008.4
20260508161745 48 0 0.9 5.2 0.00 0.00 0.00 50 1008.4
20260508160244 49 329 1.7 7.0 0.00 0.00 0.00 50 1008.5
20260508154743 49 343 1.7 9.6 0.00 0.00 0.00 50 1008.4
20260508154016 49 5 3.5 10.4 0.00 0.00 0.00 48 1008.4
20260508152514 49 350 3.5 8.7 0.00 0.00 0.00 50 1008.2
20260508150244 47 270 1.7 9.6 0.00 0.00 0.00 49 1008.2
20260508144743 48 22 2.6 9.6 0.00 0.00 0.00 47 1008.3
20260508143243 49 239 1.7 6.1 0.00 0.00 0.00 47 1008.1
20260508141738 49 44 2.6 10.4 0.00 0.00 0.00 49 1008.1
20260508140236 50 355 2.6 8.7 0.00 0.00 0.00 45 1008.2
20260508135502 50 302 2.6 9.6 0.00 0.00 0.00 46 1008.0
20260508133229 51 346 1.7 10.4 0.00 0.00 0.00 47 1008.0
20260508131729 50 22 4.3 12.2 0.00 0.00 0.00 45 1008.2